[[{"header":{"parameterUnit":"m.s-1","parameterCategory":1,"la1":30.2992,"la2":30.254,"lo1":-89.0895,"lo2":-89.0443,"dy":0.0025,"dx":0.0025,"nx":19,"ny":19,"refTime":"2026-03-25T09:00:00:Z","depth":0,"parameterNumber":2,"parameterNumberName":"U-component_of_WINDS"},"data":[0,0,0,-1.2389,-1.2389,-1.2421,-1.2421,-1.2473,-1.2474,0,0,0,0,0,0,0,0,0,0,0,-1.2385,-1.2386,-1.2389,-1.2389,-1.2421,-1.2421,-1.2473,-1.2474,0,0,0,0,0,0,0,0,0,0,0,-1.2385,-1.2386,-1.2386,-1.239,-1.2421,-1.2421,-1.2473,-1.2445,0,0,0,0,0,0,0,0,0,0,-1.2412,-1.2415,-1.2385,-1.2386,-1.239,-1.2421,-1.2421,-1.2444,-1.2447,-1.2463,0,-1.2479,0,-1.2477,-1.2478,-1.2478,0,0,0,-1.2385,-1.2413,-1.2415,-1.2386,-1.239,-1.2421,-1.2406,-1.2445,-1.2449,-1.2468,-1.248,-1.2481,-1.2478,-1.2478,-1.2479,-1.2586,-1.2586,0,0,-1.2383,-1.2395,-1.2413,-1.2418,-1.2413,-1.2405,-1.2407,-1.2447,-1.2462,-1.248,-1.2482,-1.2479,-1.2479,-1.2479,-1.2585,-1.2586,0,0,0,-1.2381,-1.2394,-1.2395,-1.2416,-1.2421,-1.2406,-1.2408,-1.246,-1.2459,-1.2483,-1.248,-1.2479,-1.248,-1.2584,-1.2585,-1.263,0,0,0,-1.238,-1.2392,-1.2395,-1.2402,-1.2421,-1.2441,-1.242,-1.2456,-1.2461,-1.2479,-1.2479,-1.2481,-1.2583,-1.2585,-1.2627,-1.265,0,0,0,-1.2381,-1.2392,-1.2399,-1.2402,-1.2416,-1.244,-1.2442,-1.2457,-1.2459,-1.2478,-1.2481,-1.2583,-1.2584,-1.2625,-1.2646,-1.2681,0,0,0,-1.2386,-1.2439,-1.24,-1.2458,-1.2416,-1.2467,-1.2441,-1.2479,-1.2501,-1.2479,-1.2583,-1.2585,-1.2624,-1.2643,-1.2679,-1.2713,-1.2729,0,0,-1.246,-1.2449,-1.2482,-1.2448,-1.2508,-1.2461,-1.2529,-1.2539,-1.2531,-1.2568,-1.257,-1.2628,-1.2646,-1.2681,-1.2811,-1.2823,0,0,0,-1.2509,-1.2534,-1.2547,-1.2568,-1.2576,-1.2585,-1.2583,-1.2587,-1.2617,-1.2552,-1.265,-1.266,-1.268,-1.2697,-1.2707,-1.2724,-1.2593,-1.2593,-1.2593,-1.2631,-1.2617,-1.2671,-1.2661,-1.2681,-1.2678,-1.2694,-1.2698,-1.2679,-1.2702,-1.2713,-1.2794,-1.2813,-1.2821,-1.2838,-1.273,-1.273,-1.273,-1.273,-1.2738,-1.277,-1.2742,-1.2784,-1.2769,-1.2805,-1.2804,-1.2789,-1.282,-1.2784,-1.2801,-1.2764,-1.2835,-1.2849,-1.2734,-1.2733,-1.2733,-1.2732,-1.2732,-1.2816,-1.2829,-1.2832,-1.2859,-1.2883,-1.287,-1.2901,-1.2886,-1.2873,-1.289,-1.29,-1.2899,-1.2896,-1.2895,-1.2896,-1.2896,-1.2896,-1.2896,-1.2897,-1.2897,-1.2898,-1.2925,-1.2938,-1.2948,-1.2961,-1.2958,-1.2968,-1.2976,-1.2963,-1.2963,-1.2942,-1.2844,-1.282,-1.2901,-1.29,-1.29,-1.2899,-1.2899,-1.3011,-1.2983,-1.3025,-1.3036,-1.3049,-1.3073,-1.3053,-1.3075,-1.3082,-1.3098,-1.3072,-1.3002,-1.299,-1.2981,-1.2961,-1.3074,-1.3074,-1.3074,-1.3074,-1.3078,-1.307,-1.3109,-1.3127,-1.3144,-1.313,-1.3178,-1.3176,-1.3169,-1.3172,-1.3154,-1.3126,-1.3118,-1.3111,-1.3099,-1.308,-1.3221,-1.3221,-1.3222,-1.3147,-1.314,-1.3184,-1.3176,-1.3185,-1.3193,-1.3238,-1.326,-1.3247,-1.3227,-1.3175,-1.3168,-1.3123,-1.3109,-1.3089,-1.3072,-1.3037,0,0]},{"header":{"parameterUnit":"m.s-1","parameterCategory":1,"la1":30.2992,"la2":30.254,"lo1":-89.0895,"lo2":-89.0443,"dy":0.0025,"dx":0.0025,"nx":19,"ny":19,"refTime":"2026-03-25T09:00:00:Z","depth":0,"parameterNumber":3,"parameterNumberName":"V-component_of_WINDS"},"data":[0,0,0,-0.4227,-0.4227,-0.4236,-0.4236,-0.424,-0.424,0,0,0,0,0,0,0,0,0,0,0,-0.4219,-0.4219,-0.4227,-0.4227,-0.4236,-0.4236,-0.424,-0.424,0,0,0,0,0,0,0,0,0,0,0,-0.4219,-0.4219,-0.4219,-0.4227,-0.4236,-0.4236,-0.424,-0.4236,0,0,0,0,0,0,0,0,0,0,-0.4228,-0.4217,-0.4219,-0.4219,-0.4227,-0.4236,-0.4236,-0.4236,-0.4236,-0.4233,0,-0.4229,0,-0.4235,-0.424,-0.424,0,0,0,-0.423,-0.4217,-0.4224,-0.4219,-0.4227,-0.4236,-0.4233,-0.4236,-0.4236,-0.4233,-0.4229,-0.423,-0.4235,-0.424,-0.424,-0.4211,-0.421,0,0,-0.4229,-0.4219,-0.4223,-0.4224,-0.4222,-0.4232,-0.4233,-0.4236,-0.4231,-0.4229,-0.423,-0.4235,-0.424,-0.424,-0.4211,-0.4211,0,0,0,-0.4226,-0.4218,-0.4225,-0.4223,-0.4226,-0.4233,-0.4233,-0.4231,-0.4234,-0.423,-0.4235,-0.424,-0.424,-0.4211,-0.4211,-0.4187,0,0,0,-0.4225,-0.4216,-0.4224,-0.4218,-0.4225,-0.4229,-0.4228,-0.4234,-0.4235,-0.4235,-0.424,-0.424,-0.4212,-0.4211,-0.4188,-0.4177,0,0,0,-0.422,-0.4216,-0.4216,-0.4218,-0.4221,-0.4229,-0.4232,-0.4234,-0.4238,-0.424,-0.424,-0.4212,-0.4211,-0.4189,-0.4179,-0.4166,0,0,0,-0.4212,-0.4194,-0.4215,-0.4198,-0.4221,-0.4214,-0.4232,-0.4228,-0.4227,-0.424,-0.4212,-0.4211,-0.419,-0.418,-0.4167,-0.4152,-0.4145,0,0,-0.4184,-0.4191,-0.4181,-0.42,-0.4187,-0.4214,-0.4196,-0.4206,-0.4215,-0.4211,-0.4211,-0.4188,-0.4179,-0.4166,-0.4111,-0.4106,0,0,0,-0.4169,-0.4162,-0.4161,-0.416,-0.4166,-0.4171,-0.4184,-0.4187,-0.4184,-0.4211,-0.418,-0.4175,-0.4168,-0.4161,-0.4156,-0.415,-0.4208,-0.4208,-0.4208,-0.4115,-0.4128,-0.4113,-0.4127,-0.4126,-0.4139,-0.4138,-0.4145,-0.4159,-0.4151,-0.415,-0.4115,-0.4107,-0.4104,-0.4097,-0.4144,-0.4144,-0.4144,-0.4143,-0.4075,-0.4067,-0.4085,-0.4077,-0.4091,-0.4084,-0.4095,-0.4105,-0.41,-0.4117,-0.4111,-0.4129,-0.4097,-0.4092,-0.4142,-0.4142,-0.4142,-0.4142,-0.4143,-0.4041,-0.4039,-0.4043,-0.4043,-0.404,-0.4055,-0.4049,-0.4062,-0.4074,-0.4068,-0.4067,-0.4068,-0.4069,-0.4067,-0.4067,-0.4067,-0.4067,-0.4067,-0.4066,-0.4003,-0.4009,-0.4003,-0.4008,-0.4008,-0.401,-0.4022,-0.4023,-0.4027,-0.4036,-0.4037,-0.405,-0.4092,-0.4102,-0.4065,-0.4065,-0.4065,-0.4065,-0.4065,-0.3957,-0.3969,-0.396,-0.396,-0.3966,-0.3963,-0.3979,-0.3979,-0.3981,-0.3977,-0.3992,-0.4021,-0.4029,-0.4033,-0.4041,-0.399,-0.399,-0.399,-0.399,-0.3928,-0.3933,-0.3925,-0.3925,-0.3926,-0.3939,-0.3927,-0.3935,-0.3947,-0.3948,-0.3958,-0.397,-0.3973,-0.3979,-0.3984,-0.3991,-0.3929,-0.3929,-0.3929,-0.3899,-0.3905,-0.3892,-0.3904,-0.3909,-0.3913,-0.3902,-0.39,-0.3915,-0.3927,-0.395,-0.3953,-0.3972,-0.3978,-0.399,-0.3998,-0.4013,0,0]}]]